| time (UTC) | temp F | wind direction | speed MPH | gust MPH | rain 1hr in | rain 24hr in | rain mn in | humidity % | barometer mb |
| 20260510224523 | 71 | 234 | 0.0 | 0.0 | 0.00 | 0.00 | 0.00 | 99 | 977.7 |
| 20260510224020 | 72 | 220 | 0.0 | 0.0 | 0.00 | 0.00 | 0.00 | 99 | 977.7 |
| 20260510223518 | 72 | 206 | 0.0 | 0.0 | 0.00 | 0.00 | 0.00 | 99 | 977.6 |
| 20260510223015 | 72 | 206 | 0.0 | 0.0 | 0.00 | 0.00 | 0.00 | 99 | 977.6 |
| 20260510222512 | 72 | 206 | 0.0 | 0.0 | 0.00 | 0.00 | 0.00 | 99 | 977.3 |
| 20260510222008 | 72 | 206 | 0.0 | 0.0 | 0.00 | 0.00 | 0.00 | 99 | 977.3 |
| 20260510221504 | 72 | 206 | 0.0 | 0.0 | 0.00 | 0.00 | 0.00 | 99 | 977.7 |
| 20260510221000 | 72 | 206 | 0.0 | 0.0 | 0.00 | 0.00 | 0.00 | 99 | 977.5 |
| 20260510220456 | 72 | 206 | 0.0 | 0.0 | 0.00 | 0.00 | 0.00 | 99 | 977.5 |
| 20260510215953 | 72 | 206 | 0.0 | 0.0 | 0.00 | 0.00 | 0.00 | 99 | 977.6 |
| 20260510215450 | 72 | 206 | 0.0 | 0.0 | 0.00 | 0.00 | 0.00 | 99 | 977.7 |
| 20260510214947 | 72 | 206 | 0.0 | 0.0 | 0.00 | 0.00 | 0.00 | 99 | 977.5 |
| 20260510214444 | 72 | 206 | 0.0 | 0.0 | 0.00 | 0.00 | 0.00 | 99 | 977.3 |
| 20260510213936 | 72 | 206 | 0.0 | 0.0 | 0.00 | 0.00 | 0.00 | 99 | 977.5 |
| 20260510213432 | 72 | 206 | 0.0 | 0.0 | 0.00 | 0.00 | 0.00 | 99 | 977.3 |
| 20260510212928 | 72 | 206 | 0.0 | 0.0 | 0.00 | 0.00 | 0.00 | 99 | 977.5 |
| 20260510212426 | 72 | 206 | 0.0 | 0.0 | 0.00 | 0.00 | 0.00 | 99 | 977.6 |
| 20260510211922 | 72 | 206 | 0.0 | 0.0 | 0.00 | 0.00 | 0.00 | 99 | 977.3 |
| 20260510211419 | 72 | 206 | 0.0 | 0.0 | 0.00 | 0.00 | 0.00 | 99 | 977.3 |
| 20260510210914 | 72 | 206 | 0.0 | 0.0 | 0.00 | 0.00 | 0.00 | 99 | 977.2 |
| 20260510210409 | 72 | 206 | 0.0 | 0.0 | 0.00 | 0.00 | 0.00 | 99 | 977.2 |
| 20260510205908 | 72 | 206 | 0.0 | 0.0 | 0.00 | 0.00 | 0.00 | 99 | 977.2 |
| 20260510205404 | 72 | 206 | 0.0 | 0.0 | 0.00 | 0.00 | 0.00 | 99 | 977.3 |
| 20260510204859 | 72 | 206 | 0.0 | 0.0 | 0.00 | 0.00 | 0.00 | 99 | 977.2 |
| 20260510204356 | 71 | 206 | 0.0 | 0.0 | 0.00 | 0.00 | 0.00 | 99 | 977.2 |
| 20260510203852 | 71 | 207 | 0.0 | 0.0 | 0.00 | 0.00 | 0.00 | 99 | 977.2 |
| 20260510203350 | 71 | 166 | 0.0 | 0.0 | 0.00 | 0.00 | 0.00 | 99 | 977.3 |
| 20260510202845 | 71 | 184 | 0.0 | 0.0 | 0.00 | 0.00 | 0.00 | 99 | 977.2 |
| 20260510202341 | 71 | 167 | 0.0 | 0.0 | 0.00 | 0.00 | 0.00 | 99 | 977.2 |
| 20260510201837 | 71 | 165 | 0.0 | 0.0 | 0.00 | 0.00 | 0.00 | 99 | 977.3 |
| 20260510201335 | 71 | 168 | 0.0 | 0.0 | 0.00 | 0.00 | 0.00 | 99 | 977.5 |
| 20260510200831 | 71 | 165 | 0.0 | 0.0 | 0.00 | 0.00 | 0.00 | 99 | 977.6 |
| 20260510200329 | 71 | 166 | 0.0 | 0.0 | 0.00 | 0.00 | 0.00 | 99 | 977.6 |
| 20260510195824 | 71 | 180 | 0.0 | 0.0 | 0.00 | 0.00 | 0.00 | 99 | 977.8 |
| 20260510195321 | 72 | 200 | 0.0 | 0.0 | 0.00 | 0.00 | 0.00 | 99 | 977.6 |
| 20260510194817 | 72 | 186 | 0.0 | 0.0 | 0.00 | 0.00 | 0.00 | 99 | 977.7 |
| 20260510194314 | 72 | 184 | 0.0 | 0.0 | 0.00 | 0.00 | 0.00 | 99 | 977.8 |
| 20260510193809 | 71 | 201 | 0.0 | 0.0 | 0.00 | 0.00 | 0.00 | 99 | 977.7 |
| 20260510193304 | 72 | 152 | 0.0 | 0.0 | 0.00 | 0.00 | 0.00 | 99 | 977.7 |
| 20260510192801 | 72 | 87 | 0.0 | 0.0 | 0.00 | 0.00 | 0.00 | 99 | 977.8 |
| 20260510192256 | 72 | 184 | 0.0 | 0.0 | 0.00 | 0.00 | 0.00 | 99 | 978.1 |
| 20260510191752 | 72 | 187 | 0.0 | 0.0 | 0.00 | 0.00 | 0.00 | 99 | 978.1 |
| 20260510191248 | 72 | 183 | 0.0 | 0.0 | 0.00 | 0.00 | 0.00 | 99 | 978.2 |
| 20260510190747 | 72 | 184 | 0.0 | 0.0 | 0.00 | 0.00 | 0.00 | 99 | 978.3 |
| 20260510190243 | 72 | 184 | 0.0 | 0.0 | 0.00 | 0.00 | 0.00 | 99 | 978.3 |
| 20260510185739 | 72 | 184 | 0.0 | 0.0 | 0.00 | 0.00 | 0.00 | 99 | 978.5 |
| 20260510185237 | 72 | 183 | 0.0 | 0.0 | 0.00 | 0.00 | 0.00 | 99 | 978.5 |
| 20260510184734 | 71 | 77 | 1.0 | 1.0 | 0.00 | 0.00 | 0.00 | 99 | 978.4 |
| 20260510184231 | 71 | 218 | 0.0 | 0.0 | 0.00 | 0.00 | 0.00 | 99 | 978.6 |
| 20260510183725 | 71 | 225 | 0.0 | 0.0 | 0.00 | 0.00 | 0.00 | 99 | 978.5 |
| 20260510183215 | 71 | 226 | 0.0 | 0.0 | 0.00 | 0.00 | 0.00 | 99 | 978.6 |
| 20260510182712 | 71 | 226 | 0.0 | 0.0 | 0.00 | 0.00 | 0.00 | 99 | 978.8 |
| 20260510182208 | 71 | 226 | 0.0 | 0.0 | 0.00 | 0.00 | 0.00 | 99 | 978.9 |
| 20260510181705 | 71 | 226 | 0.0 | 0.0 | 0.00 | 0.00 | 0.00 | 99 | 978.8 |
| 20260510181202 | 71 | 225 | 0.0 | 0.0 | 0.00 | 0.00 | 0.00 | 99 | 979.0 |
| 20260510180657 | 71 | 231 | 0.0 | 0.0 | 0.00 | 0.00 | 0.00 | 99 | 978.9 |
| 20260510180155 | 71 | 231 | 0.0 | 0.0 | 0.00 | 0.00 | 0.00 | 99 | 978.9 |
| 20260510175651 | 71 | 231 | 0.0 | 0.0 | 0.00 | 0.00 | 0.00 | 99 | 978.9 |
| 20260510175147 | 71 | 234 | 0.0 | 0.0 | 0.00 | 0.00 | 0.00 | 99 | 979.0 |
| 20260510174644 | 71 | 231 | 0.0 | 0.0 | 0.00 | 0.00 | 0.00 | 99 | 979.3 |
| 20260510174142 | 72 | 231 | 0.0 | 0.0 | 0.00 | 0.00 | 0.00 | 99 | 979.3 |
| 20260510173638 | 72 | 231 | 0.0 | 0.0 | 0.00 | 0.00 | 0.00 | 99 | 979.3 |
| 20260510173134 | 72 | 231 | 0.0 | 0.0 | 0.00 | 0.00 | 0.00 | 99 | 979.5 |
| 20260510172629 | 71 | 211 | 0.0 | 0.0 | 0.00 | 0.00 | 0.00 | 99 | 979.5 |
| 20260510172126 | 72 | 225 | 0.0 | 0.0 | 0.00 | 0.00 | 0.00 | 99 | 979.4 |
| 20260510171623 | 73 | 200 | 0.0 | 0.0 | 0.00 | 0.00 | 0.00 | 99 | 979.6 |
| 20260510171120 | 73 | 228 | 0.0 | 0.0 | 0.00 | 0.00 | 0.00 | 99 | 979.6 |
| 20260510170616 | 73 | 232 | 0.0 | 0.0 | 0.00 | 0.00 | 0.00 | 99 | 979.5 |
| 20260510170113 | 73 | 200 | 0.0 | 0.0 | 0.00 | 1.10 | 1.10 | 99 | 979.7 |
| 20260510165609 | 73 | 75 | 0.0 | 1.0 | 0.00 | 1.10 | 1.10 | 99 | 979.7 |
| 20260510165104 | 73 | 42 | 0.0 | 0.0 | 0.00 | 1.10 | 1.10 | 99 | 979.7 |
| 20260510164602 | 73 | 210 | 0.0 | 0.0 | 0.00 | 1.10 | 1.10 | 99 | 979.9 |
| 20260510164059 | 73 | 205 | 0.0 | 0.0 | 0.00 | 1.10 | 1.10 | 99 | 980.0 |
| 20260510163554 | 73 | 131 | 0.0 | 0.0 | 0.00 | 1.10 | 1.10 | 99 | 980.0 |
| 20260510163050 | 73 | 171 | 0.0 | 0.0 | 0.00 | 1.10 | 1.10 | 99 | 980.2 |
| 20260510162545 | 73 | 225 | 0.0 | 0.0 | 0.00 | 1.10 | 1.10 | 99 | 980.2 |
| 20260510162042 | 73 | 232 | 0.0 | 0.0 | 0.00 | 1.10 | 1.10 | 99 | 980.4 |
| 20260510161532 | 73 | 73 | 0.0 | 1.0 | 0.00 | 1.10 | 1.10 | 99 | 980.5 |
| 20260510161029 | 73 | 31 | 0.0 | 2.0 | 0.00 | 1.10 | 1.10 | 99 | 980.1 |
| 20260510160526 | 74 | 194 | 0.0 | 0.0 | 0.00 | 1.10 | 1.10 | 99 | 980.3 |
| 20260510160026 | 74 | 243 | 0.0 | 0.0 | 0.00 | 1.10 | 1.10 | 99 | 980.5 |
| 20260510155522 | 74 | 16 | 0.0 | 0.0 | 0.00 | 1.10 | 1.10 | 99 | 980.4 |
| 20260510155018 | 74 | 219 | 0.0 | 0.0 | 0.00 | 1.10 | 1.10 | 99 | 980.3 |
| 20260510154514 | 74 | 219 | 0.0 | 0.0 | 0.00 | 1.10 | 1.10 | 99 | 980.3 |
| 20260510154015 | 74 | 219 | 0.0 | 0.0 | 0.00 | 1.10 | 1.10 | 99 | 980.3 |
| 20260510153510 | 74 | 219 | 0.0 | 0.0 | 0.00 | 1.10 | 1.10 | 99 | 980.4 |
| 20260510153008 | 74 | 222 | 0.0 | 0.0 | 0.00 | 1.10 | 1.10 | 99 | 979.9 |
| 20260510152505 | 74 | 222 | 0.0 | 0.0 | 0.00 | 1.10 | 1.10 | 99 | 980.2 |
| 20260510152001 | 74 | 217 | 0.0 | 0.0 | 0.00 | 1.10 | 1.10 | 99 | 980.0 |
| 20260510151458 | 74 | 219 | 0.0 | 0.0 | 0.00 | 1.10 | 1.10 | 99 | 980.0 |
| 20260510150955 | 74 | 217 | 0.0 | 0.0 | 0.00 | 1.10 | 1.10 | 99 | 979.8 |
| 20260510150450 | 74 | 217 | 0.0 | 0.0 | 0.00 | 1.10 | 1.10 | 99 | 979.8 |
| 20260510145946 | 74 | 217 | 0.0 | 0.0 | 0.00 | 1.10 | 1.10 | 99 | 979.9 |
| 20260510145442 | 74 | 217 | 0.0 | 0.0 | 0.00 | 1.10 | 1.10 | 99 | 980.0 |
| 20260510144939 | 74 | 217 | 0.0 | 0.0 | 0.00 | 1.10 | 1.10 | 99 | 979.7 |
| 20260510144436 | 74 | 217 | 0.0 | 0.0 | 0.00 | 1.10 | 1.10 | 99 | 979.6 |
| 20260510143931 | 74 | 217 | 0.0 | 0.0 | 0.00 | 1.10 | 1.10 | 99 | 979.8 |
| 20260510143426 | 74 | 223 | 0.0 | 0.0 | 0.00 | 1.10 | 1.10 | 99 | 979.4 |
| 20260510142924 | 75 | 223 | 0.0 | 0.0 | 0.00 | 1.10 | 1.10 | 99 | 979.6 |
| 20260510142415 | 75 | 223 | 0.0 | 0.0 | 0.00 | 1.10 | 1.10 | 99 | 979.4 |
| 20260510141911 | 75 | 223 | 0.0 | 0.0 | 0.00 | 1.10 | 1.10 | 99 | 979.5 |
| 20260510141408 | 75 | 223 | 0.0 | 0.0 | 0.00 | 1.10 | 1.10 | 99 | 979.5 |
| 20260510140906 | 75 | 223 | 0.0 | 0.0 | 0.00 | 1.10 | 1.10 | 99 | 979.4 |
| 20260510140401 | 75 | 223 | 0.0 | 0.0 | 0.00 | 1.10 | 1.10 | 99 | 979.2 |
| 20260510135855 | 75 | 223 | 0.0 | 0.0 | 0.00 | 1.10 | 1.10 | 99 | 979.0 |
| 20260510135351 | 74 | 223 | 0.0 | 0.0 | 0.00 | 1.10 | 1.10 | 99 | 978.8 |
| 20260510134849 | 74 | 223 | 0.0 | 0.0 | 0.00 | 1.10 | 1.10 | 99 | 978.7 |
| 20260510134346 | 74 | 223 | 0.0 | 0.0 | 0.00 | 1.10 | 1.10 | 99 | 978.8 |
| 20260510133842 | 74 | 223 | 0.0 | 0.0 | 0.00 | 1.10 | 1.10 | 99 | 979.0 |
| 20260510133338 | 74 | 223 | 0.0 | 0.0 | 0.00 | 1.10 | 1.10 | 99 | 978.6 |
| 20260510132834 | 74 | 223 | 0.0 | 0.0 | 0.00 | 1.10 | 1.10 | 99 | 978.5 |
| 20260510132332 | 74 | 223 | 0.0 | 0.0 | 0.00 | 1.10 | 1.10 | 99 | 978.4 |
| 20260510131829 | 74 | 223 | 0.0 | 0.0 | 0.00 | 1.10 | 1.10 | 99 | 978.2 |
| 20260510131326 | 74 | 223 | 0.0 | 0.0 | 0.00 | 1.10 | 1.10 | 99 | 978.2 |
| 20260510130823 | 74 | 223 | 0.0 | 0.0 | 0.00 | 1.10 | 1.10 | 99 | 978.2 |
| 20260510130320 | 74 | 223 | 0.0 | 0.0 | 0.00 | 1.10 | 1.10 | 99 | 978.2 |
| 20260510125816 | 74 | 223 | 0.0 | 0.0 | 0.00 | 1.10 | 1.10 | 99 | 978.1 |
| 20260510125312 | 74 | 223 | 0.0 | 0.0 | 0.00 | 1.10 | 1.10 | 99 | 978.0 |
| 20260510124809 | 74 | 223 | 0.0 | 0.0 | 0.00 | 1.10 | 1.10 | 99 | 977.8 |
| 20260510124306 | 74 | 223 | 0.0 | 0.0 | 0.00 | 1.10 | 1.10 | 99 | 977.8 |
| 20260510123802 | 74 | 223 | 0.0 | 0.0 | 0.00 | 1.10 | 1.10 | 99 | 977.8 |
| 20260510123258 | 74 | 222 | 0.0 | 0.0 | 0.00 | 1.10 | 1.10 | 99 | 977.7 |
| 20260510122754 | 74 | 217 | 0.0 | 0.0 | 0.00 | 1.10 | 1.10 | 99 | 977.6 |
| 20260510122250 | 74 | 217 | 0.0 | 0.0 | 0.00 | 1.10 | 1.10 | 99 | 977.3 |
| 20260510121747 | 74 | 183 | 0.0 | 0.0 | 0.00 | 1.10 | 1.10 | 99 | 977.5 |
| 20260510121244 | 75 | 196 | 0.0 | 0.0 | 0.00 | 1.10 | 1.10 | 99 | 977.3 |
| 20260510120742 | 75 | 188 | 0.0 | 0.0 | 0.00 | 1.10 | 1.10 | 99 | 977.1 |
| 20260510120238 | 75 | 178 | 0.0 | 1.0 | 0.00 | 1.10 | 1.10 | 99 | 977.0 |
| 20260510115734 | 75 | 232 | 0.0 | 0.0 | 0.00 | 1.10 | 1.10 | 99 | 976.9 |
| 20260510115232 | 75 | 232 | 0.0 | 0.0 | 0.00 | 1.10 | 1.10 | 99 | 976.9 |
| 20260510114727 | 74 | 232 | 0.0 | 0.0 | 0.00 | 1.10 | 1.10 | 99 | 976.9 |
| 20260510114224 | 74 | 232 | 0.0 | 0.0 | 0.00 | 1.10 | 1.10 | 99 | 976.6 |
| 20260510113719 | 74 | 232 | 0.0 | 0.0 | 0.00 | 1.10 | 1.10 | 99 | 976.5 |
| 20260510113216 | 74 | 241 | 0.0 | 0.0 | 0.00 | 1.10 | 1.10 | 99 | 976.6 |
| 20260510112712 | 75 | 241 | 0.0 | 0.0 | 0.00 | 1.10 | 1.10 | 99 | 976.6 |
| 20260510112209 | 75 | 241 | 0.0 | 0.0 | 0.00 | 1.10 | 1.10 | 99 | 976.5 |
| 20260510111705 | 75 | 241 | 0.0 | 0.0 | 0.00 | 1.10 | 1.10 | 99 | 976.5 |
| 20260510111202 | 75 | 241 | 0.0 | 0.0 | 0.00 | 0.98 | 0.98 | 99 | 976.1 |
| 20260510110657 | 75 | 241 | 0.0 | 0.0 | 0.00 | 0.98 | 0.98 | 99 | 976.0 |
| 20260510110155 | 75 | 241 | 0.0 | 0.0 | 0.00 | 0.98 | 0.98 | 99 | 976.0 |
| 20260510105649 | 75 | 241 | 0.0 | 0.0 | 0.00 | 0.98 | 0.98 | 99 | 975.6 |
| 20260510105144 | 75 | 241 | 0.0 | 0.0 | 0.00 | 0.98 | 0.98 | 99 | 975.4 |
| 20260510104641 | 74 | 241 | 0.0 | 0.0 | 0.00 | 0.98 | 0.98 | 99 | 975.7 |
| 20260510104138 | 74 | 241 | 0.0 | 0.0 | 0.00 | 0.98 | 0.98 | 99 | 975.5 |
| 20260510103634 | 74 | 241 | 0.0 | 0.0 | 0.00 | 0.98 | 0.98 | 99 | 975.5 |
| 20260510103130 | 74 | 241 | 0.0 | 0.0 | 0.00 | 0.98 | 0.98 | 99 | 975.3 |
| 20260510102625 | 73 | 241 | 0.0 | 0.0 | 0.00 | 0.98 | 0.98 | 99 | 975.4 |
| 20260510102122 | 73 | 236 | 0.0 | 0.0 | 0.00 | 0.98 | 0.98 | 99 | 975.6 |
| 20260510101620 | 74 | 236 | 0.0 | 0.0 | 0.00 | 0.98 | 0.98 | 99 | 975.4 |
| 20260510101118 | 73 | 236 | 0.0 | 0.0 | 0.00 | 0.98 | 0.98 | 99 | 975.6 |
| 20260510100614 | 73 | 241 | 0.0 | 0.0 | 0.00 | 0.98 | 0.98 | 99 | 975.3 |
| 20260510100111 | 73 | 241 | 0.0 | 0.0 | 0.00 | 0.98 | 0.98 | 99 | 975.3 |
| 20260510095607 | 73 | 241 | 0.0 | 0.0 | 0.00 | 0.98 | 0.98 | 99 | 975.2 |
| 20260510095102 | 73 | 248 | 0.0 | 1.0 | 0.00 | 0.98 | 0.98 | 99 | 975.2 |
| 20260510094601 | 73 | 337 | 0.0 | 0.0 | 0.00 | 0.98 | 0.98 | 99 | 975.1 |
| 20260510094057 | 73 | 248 | 0.0 | 0.0 | 0.00 | 0.98 | 0.98 | 99 | 975.1 |
| 20260510093554 | 73 | 243 | 0.0 | 0.0 | 0.00 | 0.98 | 0.98 | 99 | 975.2 |
| 20260510093050 | 73 | 247 | 0.0 | 0.0 | 0.00 | 0.98 | 0.98 | 99 | 975.3 |
| 20260510092547 | 73 | 243 | 0.0 | 0.0 | 0.00 | 0.98 | 0.98 | 99 | 975.1 |
| 20260510092046 | 73 | 215 | 0.0 | 0.0 | 0.00 | 0.98 | 0.98 | 99 | 975.3 |
| 20260510091544 | 73 | 206 | 0.0 | 0.0 | 0.00 | 0.98 | 0.98 | 99 | 975.0 |
| 20260510091040 | 72 | 186 | 0.0 | 0.0 | 0.00 | 0.98 | 0.98 | 99 | 975.1 |
| 20260510090537 | 73 | 173 | 0.0 | 0.0 | 0.00 | 0.98 | 0.98 | 99 | 975.2 |
| 20260510090032 | 73 | 191 | 0.0 | 0.0 | 0.00 | 0.98 | 0.98 | 99 | 975.4 |
| 20260510085527 | 73 | 184 | 0.0 | 0.0 | 0.00 | 0.00 | 0.00 | 99 | 975.4 |
| 20260510085023 | 73 | 187 | 0.0 | 1.0 | 0.00 | 0.00 | 0.00 | 99 | 975.4 |
| 20260510084520 | 76 | 174 | 1.0 | 2.0 | 0.00 | 0.00 | 0.00 | 97 | 975.7 |
| 20260510084017 | 81 | 210 | 1.0 | 1.0 | 0.00 | 0.00 | 0.00 | 91 | 975.7 |
| 20260510083513 | 82 | 229 | 1.0 | 2.0 | 0.00 | 0.00 | 0.00 | 89 | 975.3 |
| 20260510083009 | 84 | 224 | 0.0 | 0.0 | 0.00 | 0.00 | 0.00 | 82 | 975.2 |
| 20260510082507 | 84 | 232 | 0.0 | 0.0 | 0.00 | 0.00 | 0.00 | 79 | 974.8 |
| 20260510082007 | 84 | 211 | 0.0 | 0.0 | 0.00 | 0.00 | 0.00 | 80 | 974.7 |
| 20260510081502 | 84 | 211 | 0.0 | 0.0 | 0.00 | 0.00 | 0.00 | 81 | 974.8 |
| 20260510080958 | 84 | 179 | 0.0 | 1.0 | 0.00 | 0.00 | 0.00 | 80 | 974.8 |
| 20260510080457 | 85 | 178 | 0.0 | 0.0 | 0.00 | 0.00 | 0.00 | 78 | 974.9 |
| 20260510075954 | 85 | 175 | 0.0 | 1.0 | 0.00 | 0.00 | 0.00 | 78 | 975.0 |
| 20260510075452 | 85 | 176 | 0.0 | 0.0 | 0.00 | 0.00 | 0.00 | 77 | 975.0 |
| 20260510074948 | 85 | 184 | 0.0 | 0.0 | 0.00 | 0.00 | 0.00 | 79 | 974.9 |
| 20260510074446 | 85 | 37 | 2.0 | 3.0 | 0.00 | 0.00 | 0.00 | 79 | 975.2 |
| 20260510073942 | 87 | 33 | 2.0 | 3.0 | 0.00 | 0.00 | 0.00 | 78 | 975.3 |
| 20260510073437 | 85 | 7 | 1.0 | 1.0 | 0.00 | 0.00 | 0.00 | 78 | 975.2 |
| 20260510072934 | 86 | 143 | 0.0 | 0.0 | 0.00 | 0.00 | 0.00 | 79 | 975.3 |
| 20260510072431 | 85 | 180 | 0.0 | 2.0 | 0.00 | 0.00 | 0.00 | 79 | 975.2 |
| 20260510071926 | 86 | 26 | 2.0 | 2.0 | 0.00 | 0.00 | 0.00 | 77 | 975.2 |
| 20260510071423 | 87 | 335 | 0.0 | 1.0 | 0.00 | 0.00 | 0.00 | 76 | 975.3 |
| 20260510070921 | 86 | 215 | 0.0 | 0.0 | 0.00 | 0.00 | 0.00 | 78 | 975.4 |
| 20260510070419 | 86 | 218 | 0.0 | 0.0 | 0.00 | 0.00 | 0.00 | 78 | 975.6 |
| 20260510065914 | 86 | 218 | 0.0 | 0.0 | 0.00 | 0.00 | 0.00 | 79 | 975.5 |
| 20260510065410 | 85 | 210 | 0.0 | 0.0 | 0.00 | 0.00 | 0.00 | 80 | 975.6 |
| 20260510064907 | 84 | 200 | 0.0 | 0.0 | 0.00 | 0.00 | 0.00 | 81 | 975.8 |
| 20260510064405 | 84 | 190 | 0.0 | 0.0 | 0.00 | 0.00 | 0.00 | 81 | 975.9 |
| 20260510063901 | 83 | 62 | 3.0 | 3.0 | 0.00 | 0.00 | 0.00 | 81 | 976.1 |
| 20260510063357 | 84 | 138 | 0.0 | 0.0 | 0.00 | 0.00 | 0.00 | 81 | 976.2 |
| 20260510062854 | 84 | 132 | 0.0 | 1.0 | 0.00 | 0.00 | 0.00 | 82 | 976.3 |
| 20260510062349 | 85 | 341 | 0.0 | 3.0 | 0.00 | 0.00 | 0.00 | 83 | 976.5 |
| 20260510061845 | 85 | 171 | 0.0 | 1.0 | 0.00 | 0.00 | 0.00 | 82 | 976.5 |
| 20260510061342 | 83 | 172 | 0.0 | 0.0 | 0.00 | 0.00 | 0.00 | 83 | 976.9 |
| 20260510060838 | 83 | 66 | 1.0 | 2.0 | 0.00 | 0.00 | 0.00 | 82 | 976.8 |
| 20260510060336 | 83 | 57 | 2.0 | 5.0 | 0.00 | 0.00 | 0.00 | 83 | 976.9 |
| 20260510055832 | 83 | 89 | 0.0 | 3.0 | 0.00 | 0.00 | 0.00 | 86 | 977.1 |
| 20260510055330 | 84 | 269 | 0.0 | 1.0 | 0.00 | 0.00 | 0.00 | 83 | 977.2 |
| 20260510054825 | 84 | 292 | 0.0 | 3.0 | 0.00 | 0.00 | 0.00 | 81 | 977.3 |
| 20260510054321 | 83 | 95 | 3.0 | 5.0 | 0.00 | 0.00 | 0.00 | 84 | 977.5 |
| 20260510053816 | 84 | 10 | 2.0 | 2.0 | 0.00 | 0.00 | 0.00 | 82 | 977.6 |
| 20260510053311 | 83 | 242 | 0.0 | 0.0 | 0.00 | 0.00 | 0.00 | 86 | 977.8 |
| 20260510052808 | 82 | 261 | 0.0 | 2.0 | 0.00 | 0.00 | 0.00 | 86 | 977.9 |
| 20260510052306 | 82 | 79 | 1.0 | 2.0 | 0.00 | 0.00 | 0.00 | 86 | 978.1 |
| 20260510051800 | 81 | 235 | 0.0 | 1.0 | 0.00 | 0.00 | 0.00 | 89 | 978.0 |
| 20260510051257 | 80 | 45 | 2.0 | 3.0 | 0.00 | 0.00 | 0.00 | 89 | 978.2 |
| 20260510050753 | 80 | 84 | 1.0 | 3.0 | 0.00 | 0.00 | 0.00 | 87 | 978.3 |
| 20260510050245 | 81 | 164 | 0.0 | 0.0 | 0.00 | 0.00 | 0.00 | 88 | 978.7 |
| 20260510045742 | 80 | 164 | 0.0 | 0.0 | 0.00 | 0.00 | 0.00 | 89 | 978.5 |
| 20260510045238 | 80 | 247 | 0.0 | 0.0 | 0.00 | 0.00 | 0.00 | 88 | 978.5 |
| 20260510044735 | 80 | 61 | 0.0 | 0.0 | 0.00 | 0.00 | 0.00 | 89 | 978.7 |
| 20260510044233 | 79 | 82 | 0.0 | 0.0 | 0.00 | 0.00 | 0.00 | 91 | 978.7 |
| 20260510043727 | 79 | 44 | 0.0 | 0.0 | 0.00 | 0.00 | 0.00 | 91 | 979.0 |
| 20260510043225 | 0 | 0.0 | 0.0 | 0.00 | 0.00 | 0.00 | 979.0 | ||
| 20260510042722 | 0 | 0.0 | 0.0 | 0.00 | 0.00 | 0.00 | 979.0 | ||
| 20260510042218 | 0 | 0.0 | 0.0 | 0.00 | 0.00 | 0.00 | 979.1 | ||
| 20260510041715 | 0 | 0.0 | 0.0 | 0.00 | 0.00 | 0.00 | 979.0 | ||
| 20260510041212 | 0 | 0.0 | 0.0 | 0.00 | 0.00 | 0.00 | 979.1 | ||
| 20260510040709 | 0 | 0.0 | 0.0 | 0.00 | 0.00 | 0.00 | 979.1 | ||
| 20260510040206 | 0 | 0.0 | 0.0 | 0.00 | 0.00 | 0.00 | 979.0 | ||
| 20260510035701 | 0 | 0.0 | 0.0 | 0.00 | 0.00 | 0.00 | 979.2 | ||
| 20260510035157 | 0 | 0.0 | 0.0 | 0.00 | 0.00 | 0.00 | 979.2 | ||
| 20260510034653 | 0 | 0.0 | 0.0 | 0.00 | 0.00 | 0.00 | 979.3 | ||
| 20260510034151 | 0 | 0.0 | 0.0 | 0.00 | 0.00 | 0.00 | 979.1 | ||
| 20260510033647 | 0 | 0.0 | 0.0 | 0.00 | 0.00 | 0.00 | 979.4 | ||
| 20260510033145 | 0 | 0.0 | 0.0 | 0.00 | 0.00 | 0.00 | 979.3 | ||
| 20260510032641 | 0 | 0.0 | 0.0 | 0.00 | 0.00 | 0.00 | 979.4 | ||
| 20260510032136 | 0 | 0.0 | 0.0 | 0.00 | 0.00 | 0.00 | 979.4 | ||
| 20260510031631 | 74 | 196 | 0.0 | 0.0 | 0.00 | 0.00 | 0.00 | 99 | 979.3 |
| 20260510031129 | 74 | 196 | 0.0 | 0.0 | 0.00 | 0.00 | 0.00 | 99 | 979.5 |
| 20260510030623 | 74 | 196 | 0.0 | 0.0 | 0.00 | 0.00 | 0.00 | 99 | 979.5 |
| 20260510030121 | 74 | 196 | 0.0 | 0.0 | 0.00 | 0.00 | 0.00 | 99 | 979.5 |
| 20260510025618 | 74 | 196 | 0.0 | 0.0 | 0.00 | 0.00 | 0.00 | 99 | 979.5 |
| 20260510025115 | 74 | 196 | 0.0 | 0.0 | 0.00 | 0.00 | 0.00 | 99 | 979.3 |
| 20260510024612 | 74 | 196 | 0.0 | 0.0 | 0.00 | 0.00 | 0.00 | 99 | 979.5 |
| 20260510024108 | 74 | 196 | 0.0 | 0.0 | 0.00 | 0.00 | 0.00 | 99 | 979.4 |
| 20260510023604 | 74 | 196 | 0.0 | 0.0 | 0.00 | 0.00 | 0.00 | 99 | 979.6 |
| 20260510023102 | 74 | 196 | 0.0 | 0.0 | 0.00 | 0.00 | 0.00 | 99 | 979.7 |
| 20260510022601 | 74 | 196 | 0.0 | 0.0 | 0.00 | 0.00 | 0.00 | 99 | 979.6 |
| 20260510022056 | 74 | 196 | 0.0 | 0.0 | 0.00 | 0.00 | 0.00 | 99 | 979.7 |
| 20260510021552 | 74 | 196 | 0.0 | 0.0 | 0.00 | 0.00 | 0.00 | 99 | 979.6 |
| 20260510021050 | 73 | 191 | 0.0 | 0.0 | 0.00 | 0.00 | 0.00 | 99 | 979.4 |
| 20260510020544 | 73 | 195 | 0.0 | 0.0 | 0.00 | 0.00 | 0.00 | 99 | 979.3 |
| 20260510020040 | 73 | 68 | 0.0 | 0.0 | 0.00 | 0.00 | 0.00 | 99 | 979.5 |
| 20260510015536 | 73 | 161 | 0.0 | 0.0 | 0.00 | 0.00 | 0.00 | 99 | 979.5 |
| 20260510015032 | 73 | 161 | 0.0 | 0.0 | 0.00 | 0.00 | 0.00 | 99 | 979.6 |
| 20260510014529 | 73 | 191 | 0.0 | 0.0 | 0.00 | 0.00 | 0.00 | 99 | 979.4 |
| 20260510014026 | 73 | 190 | 0.0 | 0.0 | 0.00 | 0.00 | 0.00 | 99 | 979.5 |
| 20260510013520 | 73 | 190 | 0.0 | 0.0 | 0.00 | 0.00 | 0.00 | 99 | 979.2 |
| 20260510013016 | 73 | 120 | 0.0 | 0.0 | 0.00 | 0.00 | 0.00 | 99 | 979.1 |
| 20260510012511 | 73 | 171 | 0.0 | 0.0 | 0.00 | 0.00 | 0.00 | 99 | 979.3 |
| 20260510012007 | 73 | 76 | 0.0 | 1.0 | 0.00 | 0.00 | 0.00 | 99 | 979.2 |
| 20260510011501 | 73 | 165 | 0.0 | 0.0 | 0.00 | 0.00 | 0.00 | 99 | 979.3 |
| 20260510010957 | 73 | 164 | 0.0 | 0.0 | 0.00 | 0.00 | 0.00 | 99 | 979.2 |
| 20260510010455 | 73 | 180 | 0.0 | 0.0 | 0.00 | 0.00 | 0.00 | 99 | 979.1 |
| 20260510005951 | 73 | 22 | 0.0 | 0.0 | 0.00 | 0.00 | 0.00 | 99 | 979.1 |
| 20260510005447 | 73 | 93 | 0.0 | 0.0 | 0.00 | 0.00 | 0.00 | 99 | 979.2 |
| 20260510004945 | 73 | 108 | 0.0 | 1.0 | 0.00 | 0.00 | 0.00 | 99 | 978.9 |
| 20260510004442 | 73 | 108 | 0.0 | 1.0 | 0.00 | 0.00 | 0.00 | 99 | 978.8 |
| 20260510003940 | 73 | 108 | 0.0 | 1.0 | 0.00 | 0.00 | 0.00 | 99 | 978.9 |
| 20260510003437 | 73 | 108 | 0.0 | 1.0 | 0.00 | 0.00 | 0.00 | 99 | 978.9 |
| 20260510002937 | 73 | 180 | 0.0 | 0.0 | 0.00 | 0.00 | 0.00 | 99 | 978.8 |
| 20260510002433 | 73 | 180 | 0.0 | 0.0 | 0.00 | 0.00 | 0.00 | 99 | 978.6 |
| 20260510001929 | 73 | 180 | 0.0 | 0.0 | 0.00 | 0.00 | 0.00 | 99 | 978.5 |
| 20260510001427 | 73 | 166 | 0.0 | 0.0 | 0.00 | 0.00 | 0.00 | 99 | 978.4 |
| 20260510000924 | 73 | 186 | 0.0 | 0.0 | 0.00 | 0.00 | 0.00 | 99 | 978.5 |
| 20260510000421 | 73 | 199 | 0.0 | 0.0 | 0.00 | 0.00 | 0.00 | 99 | 978.5 |
| 20260509235917 | 73 | 204 | 0.0 | 0.0 | 0.00 | 0.00 | 0.00 | 99 | 978.8 |
| 20260509235409 | 73 | 195 | 0.0 | 0.0 | 0.00 | 0.00 | 0.00 | 99 | 978.4 |
| 20260509234904 | 73 | 195 | 0.0 | 0.0 | 0.00 | 0.00 | 0.00 | 99 | 978.3 |
| 20260509234402 | 73 | 195 | 0.0 | 0.0 | 0.00 | 0.00 | 0.00 | 99 | 978.1 |
| 20260509233900 | 73 | 177 | 0.0 | 0.0 | 0.00 | 0.00 | 0.00 | 99 | 978.1 |
| 20260509233357 | 73 | 177 | 0.0 | 0.0 | 0.00 | 0.00 | 0.00 | 99 | 977.9 |
| 20260509232852 | 73 | 177 | 0.0 | 0.0 | 0.00 | 0.00 | 0.00 | 99 | 978.0 |
| 20260509232351 | 73 | 174 | 0.0 | 0.0 | 0.00 | 0.00 | 0.00 | 99 | 977.9 |
| 20260509231846 | 73 | 174 | 0.0 | 0.0 | 0.00 | 0.00 | 0.00 | 99 | 978.0 |
| 20260509231343 | 73 | 174 | 0.0 | 0.0 | 0.00 | 0.00 | 0.00 | 99 | 977.7 |
| 20260509230841 | 73 | 174 | 0.0 | 0.0 | 0.00 | 0.00 | 0.00 | 99 | 977.7 |
| 20260509230338 | 73 | 77 | 0.0 | 0.0 | 0.00 | 0.00 | 0.00 | 99 | 977.5 |
| 20260509225833 | 73 | 200 | 0.0 | 0.0 | 0.00 | 0.00 | 0.00 | 99 | 977.6 |
| 20260509225330 | 73 | 167 | 0.0 | 0.0 | 0.00 | 0.00 | 0.00 | 99 | 977.5 |
| 20260509224826 | 73 | 197 | 0.0 | 0.0 | 0.00 | 0.00 | 0.00 | 99 | 977.6 |